CAPE
0 0 0 0 0 0 0 0 0 0 0 0 0 0 0 0 0 0 0 0 0 0 0 0 0 0 7 848 1383 1411 751 424 239 14 17 0 2 2 0 0 0 0 0 0
0 0 0 0 0 0 0 0 0 0 0 0 0 0 0 0 0 0 0 0 0 0 0 0 0 0 18 775 1235 1325 817 276 176 25 2 2 1 2 0 0 0 0 0 0
0 0 0 0 0 0 0 0 0 0 0 0 0 0 0 0 0 0 0 0 0 0 0 0 0 18 324 1020 1437 1379 933 268 115 13 1 2 2 1 2 0 0 0 0 0
0 0 0 0 0 0 0 0 0 0 0 0 0 0 0 0 0 0 0 0 0 0 0 0 0 0 22 239 1750 1518 1215 603 137 16 8 1 1 3 1 0 0 0 0 0
0 0 0 0 0 0 0 0 0 0 0 0 0 0 0 0 0 0 0 0 0 0 0 0 0 0 0 0 0 0 964 922 282 67 3 0 1 1 0 0 0 0 0 0
0 0 0 0 0 0 0 0 0 0 0 0 0 0 0 0 1 0 0 0 0 0 0 0 0 0 0 0 0 0 0 830 483 155 33 0 0 0 0 0 0 0 0 0
0 0 0 0 0 0 0 0 0 0 0 0 0 0 0 0 0 0 0 0 0 0 0 0 0 0 0 0 0 0 0 0 471 130 68 7 0 0 0 0 0 0 0 0
0 0 0 0 0 0 0 0 0 0 0 0 0 0 0 0 0 0 0 0 0 0 0 0 0 0 0 0 0 0 0 9 133 106 16 11 7 0 0 0 0 0 0 0
0 0 0 0 0 0 0 0 0 0 0 0 0 0 0 0 0 0 0 0 0 0 0 0 0 0 0 0 0 0 0 0 38 76 41 0 0 0 0 0 0 0 0 0
0 0 0 0 0 0 0 0 0 0 0 0 0 0 0 0 0 0 0 0 0 0 0 0 0 0 0 0 0 0 0 8 8 88 1 0 0 0 0 0 0 0 0 0
0 0 0 0 0 0 0 0 0 0 3 5 0 0 0 0 0 0 0 0 0 0 0 0 0 0 0 0 0 0 0 56 140 148 230 75 30 6 0 0 0 0 0 0
0 0 0 0 0 0 0 0 0 0 0 0 0 0 0 0 0 0 0 0 10 15 0 1 7 25 70 0 11 77 98 14 112 186 114 59 21 4 0 1 1 1 0 0
0 0 0 0 0 0 0 0 0 0 0 0 0 0 0 0 0 0 26 22 36 84 42 64 122 12 14 243 141 191 79 77 5 0 4 0 0 0 0 1 1 1 1 0
0 0 0 0 0 0 0 0 0 0 0 0 0 0 0 0 3 8 0 0 0 2 5 62 40 20 6 1 92 1 0 46 99 34 47 1 0 0 0 0 1 1 1 0
0 0 0 0 0 0 0 0 0 0 0 0 0 0 1 19 3 0 0 0 0 0 18 77 1 0 0 0 3 57 0 0 7 1 0 0 0 2 1 2 2 1 1 1
0 0 0 0 0 0 0 0 0 0 0 0 6 0 3 0 0 0 0 0 3 1 143 83 7 0 22 3 7 67 94 30 0 0 0 0 2 1 2 2 2 2 2 1
0 1 1 0 0 0 0 0 0 0 14 0 7 1 0 0 1 2 0 0 4 55 0 9 5 0 26 15 19 130 87 6 0 1 0 1 1 2 2 2 2 1 1 1
0 0 0 0 0 0 0 0 0 6 5 7 0 0 2 2 0 0 0 1 30 38 108 80 59 123 15 0 9 4 0 0 1 2 1 1 1 1 1 1 1 1 1 1
0 0 0 0 0 1 0 0 4 0 0 0 0 0 0 0 2 0 0 3 7 3 77 143 32 28 18 0 0 0 0 0 1 1 0 1 1 2 1 1 1 1 1 1
0 0 0 0 0 0 0 2 0 0 0 0 0 0 1 0 1 0 0 0 1 63 68 86 36 4 59 0 0 0 0 0 1 1 0 1 1 1 1 1 1 1 1 1
0 6 0 4 3 7 0 0 0 0 0 0 1 0 0 0 1 1 1 1 35 4 0 2 24 40 22 5 0 0 0 0 0 2 1 0 0 0 0 1 0 0 0 0
14 0 1 1 2 5 1 0 0 0 0 0 1 0 1 1 3 5 3 2 2 0 0 0 5 3 8 18 1 0 0 0 0 2 1 0 0 0 0 0 0 0 0 0
0 12 0 6 4 0 6 5 0 0 0 2 0 0 1 7 8 6 4 0 6 1 3 0 1 6 27 22 17 2 0 0 1 3 2 0 0 0 0 0 0 0 0 1
9 21 17 18 0 40 27 0 0 1 0 0 1 8 10 10 3 5 1 1 5 7 0 7 39 10 23 38 20 7 0 0 0 1 2 0 0 0 1 1 1 0 0 0
5 15 6 0 1 4 3 0 0 0 0 1 23 6 8 2 2 3 0 1 1 1 0 0 29 48 38 18 4 0 0 0 0 1 2 1 0 0 0 1 0 0 0 0
5 2 0 0 0 0 0 0 0 0 3 13 3 3 2 1 2 1 5 4 4 0 3 0 0 13 14 49 58 0 0 0 0 0 1 2 1 0 0 0 1 0 0 0
CIN
-0 -0 -0 -0 -0 -0 -0 -0 -0 -0 -0 -0 -0 -0 -0 -0 -0 -0 -0 -0 -0 -0 -0 -0 -0 -0 -76 -69 -144 -170 -220 -249 -237 -465 -489 -0 -0 -0 -0 -0 -0 -0 -0 -0
-0 -0 -0 -0 -0 -0 -0 -0 -0 -0 -0 -0 -0 -0 -0 -0 -0 -0 -0 -0 -0 -0 -0 -0 -0 -0 -60 -69 -109 -130 -190 -270 -278 -444 -0 -0 -0 -0 -0 -0 -0 -0 -0 -0
-0 -0 -0 -0 -0 -0 -0 -0 -0 -0 -0 -0 -0 -0 -0 -0 -0 -0 -0 -0 -0 -0 -0 -0 -0 -72 -56 -16 -50 -68 -103 -217 -301 -510 -0 -0 -0 -0 -0 -0 -0 -0 -0 -0
-0 -0 -0 -0 -0 -0 -0 -0 -0 -0 -0 -0 -0 -0 -0 -0 -0 -0 -0 -0 -0 -0 -0 -0 -0 -0 -45 -38 -22 -50 -70 -108 -239 -500 -505 -0 -0 -0 -0 -0 -0 -0 -0 -0
-0 -0 -0 -0 -0 -0 -0 -0 -0 -0 -0 -0 -0 -0 -0 -0 -0 -0 -0 -0 -0 -0 -0 -0 -0 -0 -0 -0 -0 -0 -18 -57 -181 -349 -492 -0 -0 -0 -0 -0 -0 -0 -0 -0
-0 -0 -0 -0 -0 -0 -0 -0 -0 -0 -0 -0 -0 -0 -0 -0 -1 -0 -0 -0 -0 -0 -0 -0 -0 -0 -0 -0 -0 -0 -0 -10 -99 -211 -340 -0 -0 -0 -0 -0 -0 -0 -0 -0
-0 -0 -0 -0 -0 -0 -0 -0 -0 -0 -0 -0 -0 -0 -0 -0 -0 -0 -0 -0 -0 -0 -0 -0 -0 -0 -0 -0 -0 -0 -0 -0 -17 -106 -241 -323 -0 -0 -0 -0 -0 -0 -0 -0
-0 -0 -0 -0 -0 -0 -0 -0 -0 -0 -0 -0 -0 -0 -0 -0 -0 -0 -0 -0 -0 -0 -0 -0 -0 -0 -0 -0 -0 -0 -0 -198 -19 -35 -147 -274 -301 -0 -0 -0 -0 -0 -0 -0
-0 -0 -0 -0 -0 -0 -0 -0 -0 -0 -0 -0 -0 -0 -0 -0 -0 -0 -0 -0 -0 -0 -0 -0 -0 -0 -0 -0 -0 -0 -0 -0 -135 -132 -168 -90 -0 -0 -0 -0 -0 -0 -0 -0
-0 -0 -0 -0 -0 -0 -0 -0 -0 -1 -0 -0 -0 -0 -0 -0 -0 -0 -0 -0 -0 -0 -0 -0 -0 -0 -0 -0 -0 -0 -0 -4 -9 -45 -25 -0 -0 -0 -0 -0 -0 -0 -0 -0
-0 -0 -0 -0 -0 -0 -0 -0 -0 -1 -7 -1 -1 -0 -0 -0 -0 -0 -0 -0 -0 -0 -0 -0 -0 -0 -0 -0 -0 -0 -0 -13 -15 -27 -54 -107 -127 -139 -17 -0 -0 -0 -0 -0
-0 -0 -0 -0 -0 -0 -0 -0 -0 -0 -0 -0 -0 -0 -0 -0 -0 -0 -0 -0 -2 -1 -0 -2 -9 -8 -2 -0 -40 -8 -4 -31 -34 -51 -57 -38 -97 -120 -0 -0 -0 -0 -0 -0
-0 -0 -0 -0 -0 -0 -0 -0 -0 -0 -0 -0 -0 -0 -0 -0 -0 -0 -12 -15 -20 -4 -23 -11 -4 -79 -0 -4 -33 -11 -16 -31 -77 -4 -57 -0 -0 -0 -0 -0 -0 -0 -0 -0
-0 -0 -0 -0 -0 -0 -0 -0 -0 -0 -0 -0 -0 -0 -0 -0 -0 -39 -0 -0 -0 -33 -17 -28 -78 -24 -85 -40 -64 -70 -0 -85 -16 -71 -37 -18 -0 -0 -0 -0 -0 -0 -0 -0
-0 -0 -0 -0 -0 -0 -0 -0 -0 -0 -0 -0 -0 -0 -1 -2 -9 -0 -0 -0 -0 -0 -120 -35 -1 -0 -0 -0 -41 -26 -0 -0 -0 -40 -0 -0 -0 -0 -0 -0 -0 -0 -0 -0
-0 -0 -0 -0 -0 -0 -0 -0 -0 -0 -0 -0 -6 -6 -20 -0 -0 -0 -0 -0 -0 -0 -10 -8 -21 -0 -61 -71 -48 -15 -27 -64 -0 -0 -0 -0 -0 -0 -0 -0 -0 -0 -0 -0
-0 -0 -2 -0 -0 -0 -0 -0 -0 -0 -10 -0 -14 -3 -0 -0 -0 -1 -0 -0 -0 -22 -0 -5 -71 -14 -41 -42 -37 -9 -15 -10 -0 -0 -0 -0 -0 -0 -0 -0 -0 -0 -0 -0
-0 -0 -0 -0 -2 -0 -0 -0 -0 -6 -17 -12 -18 -0 -0 -0 -0 -0 -0 -0 -4 -5 -0 -2 -22 -8 -24 -0 -53 -40 -0 -0 -0 -0 -0 -0 -0 -0 -0 -0 -0 -0 -0 -0
-0 -0 -0 -0 -1 -5 -2 -0 -21 -5 -0 -0 -0 -0 -0 -0 -0 -0 -0 -0 -8 -11 -27 -3 -22 -12 -57 -0 -0 -0 -0 -0 -0 -0 -0 -0 -0 -0 -0 -0 -0 -0 -0 -0
-0 -2 -0 -0 -0 -2 -0 -48 -0 -0 -0 -0 -0 -0 -0 -0 -0 -0 -0 -0 -14 -3 -21 -8 -32 -2 -25 -0 -0 -0 -0 -0 -0 -0 -0 -0 -0 -0 -0 -0 -0 -0 -0 -0
-7 -4 -4 -39 -2 -18 -2 -0 -0 -0 -0 -0 -0 -0 -0 -0 -0 -0 -0 -1 -0 -0 -0 -14 -12 -2 -4 -12 -0 -0 -0 -0 -0 -0 -0 -0 -0 -0 -0 -0 -0 -0 -0 -0
-9 -15 -22 -15 -12 -6 -2 -0 -0 -0 -0 -0 -0 -0 -0 -0 -0 -1 -3 -3 -2 -0 -0 -7 -20 -18 -8 -6 -6 -0 -0 -0 -0 -0 -0 -0 -0 -0 -0 -0 -0 -0 -0 -0
-0 -6 -1 -18 -18 -12 -15 -28 -0 -1 -0 -0 -0 -0 -0 -0 -0 -1 -1 -0 -3 -6 -21 -0 -10 -5 -3 -23 -37 -24 -0 -0 -0 -0 -0 -0 -0 -0 -0 -0 -0 -0 -0 -0
-23 -11 -17 -30 -5 -6 -6 -0 -8 -43 -1 -0 -0 -0 -0 -1 -2 -0 -2 -0 -2 -1 -0 -22 -5 -8 -0 -1 -40 -69 -0 -0 -0 -0 -0 -0 -0 -0 -0 -0 -0 -0 -0 -0
-6 -4 -5 -0 -2 -9 -4 -0 -0 -0 -0 -0 -0 -0 -1 -0 -0 -0 -0 -0 -1 -0 -0 -0 -2 -16 -24 -33 -13 -0 -0 -0 -0 -0 -0 -0 -0 -0 -0 -0 -0 -0 -0 -0
-10 -17 -2 -0 -0 -0 -0 -0 -0 -0 -0 -0 -2 -3 -1 -3 -0 -0 -0 -0 -0 -0 -0 -0 -0 -9 -5 -3 -4 -0 -0 -0 -0 -0 -0 -0 -0 -0 -0 -0 -0 -0 -0 -0
Wind_Speed
16 12 16 24 26 37 43 40 42 44 40 42 40 40 36 31 30 31 29 27 28 25 23 24 21 27 20 13 14 17 18 17 18 23 22 23 23 21 19 19 17 15 15 15
13 13 16 22 28 33 33 34 36 39 41 39 41 52 37 32 29 28 28 27 27 24 28 30 28 17 14 12 14 16 16 17 18 23 26 27 24 26 22 19 18 17 16 17
22 23 30 28 27 36 34 34 37 42 44 42 38 50 46 30 32 35 32 23 23 19 20 24 18 16 14 13 11 14 16 17 19 21 23 27 26 27 24 20 18 18 18 18
28 27 28 31 33 34 38 34 39 42 44 54 37 48 56 37 34 30 33 35 18 14 17 19 21 21 19 20 11 13 17 17 18 19 23 25 29 29 27 25 23 21 21 21
28 34 35 36 34 31 38 39 41 44 43 49 62 41 48 39 38 35 28 18 15 13 17 20 22 22 22 23 23 24 20 17 17 18 23 25 29 31 29 27 25 23 23 24
32 30 32 34 34 31 34 38 41 43 41 51 51 50 55 42 32 27 22 20 18 18 19 21 20 24 27 27 28 29 32 25 23 22 23 25 28 31 31 30 28 26 25 25
36 38 38 35 34 30 32 36 45 47 42 46 39 42 38 35 28 25 25 25 24 26 27 28 30 31 28 28 31 31 32 35 26 26 29 29 29 32 34 32 30 28 27 26
41 45 33 31 29 32 32 32 36 50 53 51 46 45 35 28 25 22 23 28 32 33 36 37 39 38 37 38 38 34 33 34 31 31 32 30 31 33 35 36 34 32 31 28
39 36 26 28 27 28 32 35 32 42 44 48 45 44 37 31 30 33 35 37 39 42 43 46 49 49 47 49 47 46 43 40 38 36 35 35 35 35 36 37 37 35 34 30
33 44 31 27 28 29 30 29 38 34 46 48 39 41 38 38 41 45 47 47 49 51 50 49 48 49 51 47 48 51 52 49 45 41 39 39 37 38 37 36 38 36 34 31
29 33 37 38 33 36 35 36 33 34 36 45 45 38 29 38 46 53 58 62 64 59 53 53 50 48 47 48 46 43 41 39 37 36 36 36 35 33 33 34 33 34 33 32
28 35 45 43 36 33 36 37 35 39 38 36 39 46 41 49 55 57 58 54 53 52 47 48 42 44 41 40 40 37 33 30 28 29 32 28 31 28 31 32 30 29 31 31
24 34 47 46 28 25 29 31 29 31 37 46 51 54 50 51 53 53 48 51 51 49 45 44 39 39 40 34 36 35 29 27 28 25 31 34 26 27 27 28 29 30 29 31
27 33 38 47 43 42 43 38 36 40 46 49 52 56 53 52 51 48 48 47 45 44 45 39 38 34 39 38 37 35 33 33 29 23 23 27 18 19 23 26 27 29 29 30
28 42 39 39 39 40 42 42 42 43 44 50 52 51 50 45 45 43 43 46 47 47 39 39 27 30 34 36 32 31 27 25 21 19 18 20 17 18 19 19 22 24 26 27
27 43 40 45 39 40 45 42 41 43 44 46 45 46 36 39 40 40 41 38 40 37 38 29 29 32 31 35 35 32 24 22 21 22 24 22 18 15 14 14 12 17 16 23
34 38 40 50 43 44 51 41 41 42 39 37 44 40 41 43 43 38 38 31 23 7 22 28 29 30 30 31 34 34 33 24 25 25 22 22 15 15 11 9 11 13 16 17
37 38 39 48 44 56 43 35 37 34 31 35 36 35 39 41 38 37 31 24 10 25 28 28 28 29 29 31 31 33 33 32 29 25 26 16 9 10 8 7 10 13 15 14
28 33 41 45 47 46 44 40 30 34 35 28 32 38 36 38 37 30 23 22 25 25 18 28 26 16 23 28 29 30 29 29 27 26 25 13 5 2 2 3 6 8 13 13
27 28 35 40 46 48 35 27 24 27 31 30 32 33 35 34 30 28 31 30 25 25 4 23 10 30 20 27 28 26 26 28 22 17 20 12 7 5 7 9 8 8 12 11
37 34 35 35 38 33 23 29 29 30 30 32 33 34 34 30 29 33 33 31 30 32 29 30 20 22 26 25 29 27 24 27 26 20 17 15 10 7 7 12 11 9 11 14
37 38 37 32 33 37 29 29 26 29 32 32 32 34 32 31 30 33 32 32 33 33 32 31 32 29 29 29 26 29 26 25 24 22 18 17 9 9 6 11 10 9 11 12
35 30 32 27 29 32 33 22 28 27 31 31 32 31 31 32 32 34 34 34 34 34 34 35 33 33 29 25 27 27 23 22 23 20 18 17 15 4 7 11 9 10 11 10
28 29 26 29 27 33 30 29 27 29 29 29 29 28 29 31 32 33 31 32 33 34 35 34 35 34 31 27 22 23 22 19 19 19 15 12 13 4 5 6 8 9 10 9
25 28 19 27 23 22 24 24 26 28 26 24 25 27 30 31 32 32 32 34 35 36 36 35 36 35 33 34 21 22 21 19 18 17 13 9 6 7 7 5 6 10 9 10
17 19 21 24 21 21 22 23 21 23 24 24 27 28 27 29 31 32 33 34 36 37 38 37 36 36 36 35 29 20 19 20 19 17 14 9 2 3 5 9 5 7 10 10
Wind_Direction
325 312 309 313 310 305 303 310 308 307 313 312 311 309 315 315 313 315 313 309 307 307 315 317 308 295 292 271 265 268 269 268 255 256 250 252 249 248 248 246 243 240 242 233
321 305 311 310 309 309 308 310 310 311 313 312 314 309 317 317 312 310 306 305 305 306 310 314 312 284 275 264 267 269 272 268 261 256 256 260 253 257 250 247 245 240 235 232
315 318 319 318 309 308 306 307 311 310 314 311 314 309 315 323 321 320 321 304 308 310 320 331 337 341 334 306 277 275 275 273 267 263 260 265 260 263 254 247 241 239 235 229
315 321 317 314 311 310 306 311 311 312 314 309 320 313 308 324 320 321 316 313 317 328 334 335 337 339 330 319 303 281 277 273 273 266 265 263 262 258 255 253 250 246 237 234
308 312 311 307 307 308 306 310 312 312 309 309 307 313 307 322 319 321 326 346 336 328 325 325 327 327 328 321 315 315 288 270 270 267 270 269 269 266 264 257 252 247 242 242
308 310 310 310 309 309 311 310 310 310 307 300 307 310 311 323 331 350 348 351 346 337 335 329 329 323 319 317 315 311 302 286 273 271 271 273 272 270 265 260 256 250 246 244
315 314 310 316 313 311 310 309 309 310 307 303 313 311 317 327 343 337 326 331 334 334 331 323 318 317 316 312 309 307 303 295 288 276 273 274 273 272 267 261 255 251 248 246
312 313 324 328 321 315 316 316 305 306 306 307 311 306 309 318 345 344 333 326 321 320 318 315 315 313 309 307 308 306 300 296 290 283 280 276 274 272 270 264 260 254 250 246
312 310 328 327 321 321 317 309 313 305 303 303 304 305 305 309 317 322 321 319 315 313 312 309 307 306 307 304 300 298 296 292 289 282 279 278 274 271 269 265 261 257 254 252
313 306 314 318 321 316 308 314 310 310 308 304 305 305 309 316 316 317 314 315 313 312 311 309 307 304 302 300 298 295 292 286 281 281 278 277 276 271 268 266 259 255 252 249
313 308 311 315 312 312 311 308 310 309 302 306 306 302 325 322 320 314 311 309 308 309 310 310 308 308 307 305 302 299 295 288 278 279 279 275 273 271 266 265 259 253 250 247
311 312 306 306 309 306 306 303 301 302 306 305 307 299 312 314 315 314 312 311 314 315 313 313 315 315 314 317 311 303 303 292 283 285 289 285 277 272 265 262 258 251 246 245
318 312 310 314 326 329 320 320 308 306 305 301 301 301 310 312 313 312 315 316 316 316 321 320 323 324 312 323 322 320 319 310 301 299 284 273 285 271 269 263 256 249 244 244
318 308 305 303 305 311 307 306 304 304 302 304 300 306 310 311 313 317 317 318 317 317 313 302 317 326 327 328 322 320 316 315 313 314 308 290 283 275 269 261 254 248 244 239
310 304 304 303 305 307 306 305 305 303 303 301 306 305 311 317 322 324 322 317 297 290 275 302 311 336 338 340 341 338 334 332 329 328 321 301 286 281 273 259 251 248 239 234
303 302 304 301 305 306 304 305 305 304 304 304 309 313 320 328 328 327 287 282 278 276 293 316 332 328 344 343 335 344 350 348 339 329 331 317 295 277 272 259 235 236 229 229
301 302 302 300 306 307 303 308 307 307 311 314 313 320 326 324 319 286 285 274 260 283 329 325 325 330 348 351 346 340 336 345 338 331 332 323 301 276 269 252 243 237 225 216
299 299 301 301 306 300 307 310 310 318 316 322 324 325 323 303 288 282 275 253 289 339 319 318 329 335 347 345 357 348 346 344 342 342 336 335 305 281 264 256 236 230 222 211
295 297 300 299 299 304 308 314 316 316 317 333 327 304 290 295 290 276 270 277 284 354 262 307 337 5 3 352 2 4 7 8 0 354 355 351 329 313 244 208 197 197 213 206
298 291 294 299 301 303 309 329 340 328 315 328 295 288 291 289 280 271 293 296 281 337 342 344 255 308 2 353 359 12 14 14 23 32 32 42 53 74 107 120 147 195 202 199
302 304 297 298 301 309 326 323 327 318 319 280 288 295 286 277 273 278 282 283 297 313 290 311 340 344 345 355 349 1 13 14 22 38 61 58 76 78 105 110 121 178 175 186
307 306 305 304 302 305 324 325 320 299 269 276 281 288 283 281 289 291 294 304 309 306 297 296 312 330 335 334 348 350 0 13 23 32 57 357 54 93 116 120 130 148 184 184
309 310 310 308 304 307 312 325 262 272 278 279 281 277 282 291 295 303 305 305 307 308 303 305 306 321 339 346 340 348 1 5 13 31 45 70 49 82 123 130 137 191 190 173
320 317 316 314 313 278 257 260 271 278 276 278 270 277 289 299 303 304 299 301 304 310 308 305 313 324 336 347 351 349 355 2 1 6 30 56 89 345 127 176 165 186 164 178
322 302 284 246 244 242 241 258 265 267 262 264 272 287 301 313 311 307 302 312 315 317 316 311 320 322 328 328 346 346 348 349 344 352 7 32 66 97 245 188 171 162 197 188
228 238 244 247 239 237 246 252 252 255 260 273 292 297 309 315 309 312 314 316 318 319 318 320 321 323 328 331 341 342 339 338 334 328 336 343 348 147 158 239 197 203 211 173